Location: Ostrava
(49.8330°N, 18.2830°E)
Time: 13:17:45
(UTC+01:00)

Iridium 7 - Visible Passes

Search period start: 28 March 2015 00:00
Search period end: 07 April 2015 01:00
Orbit: 776 x 779 km, 86.4° (Epoch: 28 March)

Date Brightness Start Highest point End Pass type
(mag) Time Alt. Az. Time Alt. Az. Time Alt. Az.
28 Mar 6.9 19:35:10 10° NNW 19:40:04 41° W 19:44:55 10° SSW visible
29 Mar 5.9 20:01:25 10° N 20:06:39 71° W 20:11:50 10° S visible
29 Mar 8.7 21:45:04 10° NW 21:46:30 11° WNW 21:47:39 10° W visible
30 Mar 8.3 21:09:44 10° NNW 21:13:20 19° WNW 21:16:47 10° WSW visible
31 Mar 7.6 20:35:31 10° NNW 20:40:04 31° W 20:44:33 10° SW visible
01 Apr 6.6 20:01:38 10° NNW 20:06:43 51° W 20:11:44 10° SSW visible
02 Apr 8.6 21:10:37 10° NW 21:13:14 14° WNW 21:15:37 10° WSW visible
03 Apr 8.2 20:35:58 10° NNW 20:40:02 23° W 20:43:57 10° SW visible
04 Apr 7.3 20:01:54 10° NNW 20:06:43 37° W 20:11:28 10° SSW visible
06 Apr 8.6 20:36:37 10° NW 20:39:57 17° WNW 20:43:05 10° WSW visible
